Regional Weather Roundup
Issued by NWS Jackson, KY

Home | Current Version | Previous Version | Graphics & Text | Print | Product List | Glossary On
Versions: 1 2 3 4 5 6 7 8 9 10 11 12 13 14 15 16 17 18 19 20 21 22 23 24 25 26 27 28 29 30 31 32 33 34 35 36 37 38 39 40 41 42 43 44 45 46 47 48 49 50
000
ASUS43 KJKL 290910
RWRJKL

EAST KENTUCKY HOURLY WEATHER ROUNDUP
NATIONAL WEATHER SERVICE JACKSON KY
500 AM EDT SAT AUG 29 2015

NOTE: "FAIR" INDICATES FEW OR NO CLOUDS BELOW 12,000 FEET WITH
NO SIGNIFICANT WEATHER AND/OR OBSTRUCTIONS TO VISIBILITY.

* THESE REPORTS ARE NOT UNDER NWS QUALITY CONTROL AND MAY NOT
  REPORT WEATHER SUCH AS PRECIPITATION AND FOG.

KYZ079-080-083-085-087-088-110-112-115-119-120-291000
...EASTERN KENTUCKY...

CITY           SKY/WX    TMP DP  RH WIND       PRES   REMARKS
JACKSON        PTCLDY    65  61  87 CALM      30.17R
LONDON         PTCLDY    65  61  87 CALM      30.17R
SOMERSET*      CLEAR     61  61 100 CALM      30.16S FOG
MONTICELLO*    CLEAR     59  59 100 CALM      30.17S
MIDDLESBORO*   MOCLDY    61  61  99 CALM      30.19R
HAZARD APT*    MOSUNNY   63  63 100 CALM      30.17  FOG
BLACK MTN*       N/A     61  55  82 SW3         N/A
PIKEVILLE APT* PTCLDY    64  63  94 SE3       30.18R
BIG SANDY*     MOSUNNY   64  63  95 CALM      30.17S
MOREHEAD APT*  SUNNY     66  59  77 CALM      30.16S
$$

KYZ035-036-041-042-044-050-067-078-099-291000
...CENTRAL KENTUCKY...

CITY           SKY/WX    TMP DP  RH WIND       PRES   REMARKS
MT STERLING*   CLEAR     61  61 100 CALM      30.15S
FLEMING/MASON* CLEAR     63  59  88 S5        30.15
DANVILLE*      CLEAR     64  63  94 S5        30.15S
RICHMOND*      PTCLDY    63  61  94 CALM      30.14R
LEXINGTON      CLEAR     67  62  84 SE8       30.13S
FRANKFORT      PTCLDY    65  60  84 SE3       30.11S
$$

KYZ091>093-OHZ055-061-077-WVZ005-015-034-035-042-291000
...SOUTHERN OHIO/WEST VIRGINIA...

CITY           SKY/WX    TMP DP  RH WIND       PRES   REMARKS
COVINGTON      CLOUDY    68  59  73 SE7       30.12R
COLUMBUS       PTCLDY    59  56  89 CALM      30.13S
DAYTON         CLOUDY    64  59  83 S5        30.13S
WILMINGTON     PTCLDY    61  56  83 SE5       30.13S
HUNTINGTON     CLEAR     60  59  96 CALM      30.14S
CHARLESTON     PTCLDY    60  59  96 CALM      30.16S
PINEVILLE*     PTCLDY    58  58 100 MISG      30.26S FOG
BECKLEY        CLEAR     63  56  78 S3        30.25R
BLUEFIELD      MOCLDY    67  55  65 CALM      30.27R
$$

VAZ002-007-008-TNZ017-027-036-066-071-291000
...SOUTHWEST VIRGINIA/EAST TENNESSEE...

CITY           SKY/WX    TMP DP  RH WIND       PRES   REMARKS
WISE*          MOCLDY    64  54  68 S3        30.25F
JONESVILLE*    PTSUNNY   61  61 100 CALM      30.22R
ABINGDON*      PTCLDY    63  58  84 CALM      30.23S
BRISTOL        MOCLDY    61  59  93 CALM      30.20S
KNOXVILLE      CLOUDY    68  67  96 CALM      30.14F
OAK RIDGE      MOCLDY    67  64  90 CALM      30.18R
CROSSVILLE     MOCLDY    70  62  76 CALM      30.19S
NASHVILLE      PTCLDY    71  65  81 CALM      30.10S
$$

...KEY TO REMARKS...
VSB - VISIBILITY IN MILES
WCI - WIND CHILL INDEX
HX  - HEAT INDEX

$$


USA.gov is the U.S. government's official web portal to all federal, state and local government web resources and services.